When you browse on this site, cookies collect data to enhance your experience and personalize the content and advertising you see.
Visit our Privacy Policy to learn more. By continuing to use the site, you agree to this use of cookies and data.
  • în România
  • Lista ţărilor
  • Pe 7 zile
  • Temperatura apei
  • Hartă satelitară
  • Meteo pe hartă
  • Widget-uri
  • user-avatar
    Intrare

    Meteo pe oră la Manchester

    Astăzi, 22 Aprilie, Luni

    Timp Temperatura Precipitaţii Vânt Presiune Umiditate
    00:00 +14°C° 0 mm 3 m/s 754 mmHg 69%
    01:00 +14°C° 0 mm 2 m/s 753 mmHg 69%
    02:00 +13°C° 0 mm 2 m/s 753 mmHg 69%
    03:00 +13°C° 0 mm 2 m/s 752 mmHg 69%
    04:00 +13°C° 0 mm 2 m/s 752 mmHg 67%
    05:00 +12°C° 0 mm 2 m/s 752 mmHg 65%
    06:00 +12°C° 0 mm 2 m/s 752 mmHg 50%
    07:00 +13°C° 0 mm 3 m/s 751 mmHg 47%
    08:00 +16°C° 0 mm 3 m/s 751 mmHg 44%
    09:00 +17°C° 0 mm 3 m/s 750 mmHg 40%
    10:00 +18°C° 0 mm 4 m/s 750 mmHg 39%
    11:00 +20°C° 0 mm 4 m/s 750 mmHg 38%
    12:00 +21°C° 0 mm 4 m/s 749 mmHg 37%
    13:00 +21°C° 0 mm 5 m/s 749 mmHg 40%
    14:00 +22°C° 0 mm 5 m/s 748 mmHg 44%
    15:00 +22°C° 0 mm 6 m/s 747 mmHg 48%
    16:00 +21°C° 0.1 mm 5 m/s 747 mmHg 51%
    17:00 +20°C° 0.1 mm 5 m/s 747 mmHg 54%
    18:00 +20°C° 0.1 mm 5 m/s 746 mmHg 57%
    19:00 +17°C° 0 mm 5 m/s 746 mmHg 62%
    20:00 +17°C° 0 mm 4 m/s 747 mmHg 67%
    21:00 +15°C° 0 mm 4 m/s 747 mmHg 72%
    22:00 +14°C° 0 mm 4 m/s 747 mmHg 72%
    23:00 +14°C° 0 mm 3 m/s 746 mmHg 73%

    Mâine, 23 Aprilie, Marţi

    Timp Temperatura Precipitaţii Vânt Presiune Umiditate
    00:00 +14°C° 0 mm 3 m/s 746 mmHg 74%
    01:00 +13°C° 0 mm 3 m/s 746 mmHg 74%
    02:00 +12°C° 0 mm 3 m/s 746 mmHg 73%
    03:00 +12°C° 0 mm 3 m/s 745 mmHg 73%
    04:00 +12°C° 0 mm 4 m/s 745 mmHg 75%
    05:00 +12°C° 0 mm 4 m/s 745 mmHg 76%
    06:00 +12°C° 0 mm 4 m/s 745 mmHg 78%
    07:00 +13°C° 0 mm 5 m/s 745 mmHg 74%
    08:00 +14°C° 0 mm 5 m/s 744 mmHg 71%
    09:00 +15°C° 0 mm 6 m/s 744 mmHg 67%
    10:00 +17°C° 0 mm 6 m/s 744 mmHg 63%
    11:00 +19°C° 0 mm 6 m/s 744 mmHg 59%
    12:00 +20°C° 0 mm 6 m/s 744 mmHg 55%
    13:00 +20°C° 0 mm 6 m/s 743 mmHg 55%
    14:00 +20°C° 0 mm 6 m/s 743 mmHg 56%
    15:00 +20°C° 0 mm 6 m/s 743 mmHg 56%
    16:00 +19°C° 0 mm 6 m/s 743 mmHg 60%
    17:00 +17°C° 0 mm 6 m/s 743 mmHg 63%
    18:00 +15°C° 0 mm 6 m/s 743 mmHg 67%
    19:00 +14°C° 0 mm 6 m/s 742 mmHg 70%
    20:00 +13°C° 0 mm 6 m/s 742 mmHg 74%
    21:00 +11°C° 0 mm 6 m/s 742 mmHg 78%
    22:00 +10°C° 0 mm 5 m/s 742 mmHg 80%
    23:00 +10°C° 0 mm 5 m/s 742 mmHg 83%

    Poimâine, 24 Aprilie, Miercuri

    Timp Temperatura Precipitaţii Vânt Presiune Umiditate
    00:00 +9°C° 0 mm 5 m/s 742 mmHg 85%
    01:00 +9°C° 0 mm 5 m/s 741 mmHg 86%
    02:00 +10°C° 0 mm 5 m/s 740 mmHg 87%
    03:00 +10°C° 0 mm 5 m/s 740 mmHg 88%
    04:00 +10°C° 0 mm 6 m/s 739 mmHg 88%
    05:00 +10°C° 0 mm 6 m/s 739 mmHg 87%
    06:00 +10°C° 0 mm 6 m/s 739 mmHg 87%
    07:00 +11°C° 0 mm 6 m/s 738 mmHg 85%
    08:00 +13°C° 0 mm 6 m/s 738 mmHg 84%
    09:00 +13°C° 0 mm 6 m/s 738 mmHg 82%
    10:00 +13°C° 0.8 mm 6 m/s 738 mmHg 84%
    11:00 +11°C° 0.8 mm 6 m/s 739 mmHg 86%
    12:00 +11°C° 0.8 mm 6 m/s 739 mmHg 88%
    13:00 +10°C° 0.9 mm 6 m/s 739 mmHg 85%
    14:00 +10°C° 0.9 mm 5 m/s 740 mmHg 83%
    15:00 +11°C° 0.9 mm 4 m/s 740 mmHg 80%
    16:00 +11°C° 0.1 mm 4 m/s 740 mmHg 78%
    17:00 +12°C° 0.1 mm 4 m/s 740 mmHg 75%
    18:00 +12°C° 0.1 mm 4 m/s 740 mmHg 72%
    19:00 +12°C° 0.1 mm 4 m/s 741 mmHg 74%
    20:00 +11°C° 0.1 mm 4 m/s 741 mmHg 77%
    21:00 +10°C° 0.1 mm 4 m/s 742 mmHg 79%
    22:00 +9°C° 0 mm 5 m/s 741 mmHg 79%
    23:00 +9°C° 0 mm 5 m/s 741 mmHg 80%

    25 Aprilie, Joi

    Timp Temperatura Precipitaţii Vânt Presiune Umiditate
    00:00 +8°C° 0 mm 6 m/s 741 mmHg 80%
    01:00 +9°C° 0.1 mm 6 m/s 740 mmHg 82%
    02:00 +9°C° 0.1 mm 6 m/s 740 mmHg 83%
    03:00 +9°C° 0.1 mm 6 m/s 740 mmHg 85%
    04:00 +9°C° 0.9 mm 6 m/s 740 mmHg 86%
    05:00 +9°C° 0.9 mm 6 m/s 739 mmHg 87%
    06:00 +8°C° 0.9 mm 6 m/s 739 mmHg 89%
    07:00 +9°C° 0.3 mm 6 m/s 739 mmHg 84%
    08:00 +10°C° 0.3 mm 6 m/s 740 mmHg 80%
    09:00 +11°C° 0.3 mm 7 m/s 740 mmHg 75%
    10:00 +11°C° 0.2 mm 7 m/s 740 mmHg 70%
    11:00 +12°C° 0.2 mm 7 m/s 739 mmHg 66%
    12:00 +13°C° 0.2 mm 8 m/s 739 mmHg 61%
    13:00 +12°C° 0.4 mm 8 m/s 739 mmHg 63%
    14:00 +12°C° 0.4 mm 8 m/s 738 mmHg 66%
    15:00 +11°C° 0.4 mm 8 m/s 738 mmHg 68%
    16:00 +11°C° 0.5 mm 8 m/s 738 mmHg 72%
    17:00 +11°C° 0.5 mm 7 m/s 739 mmHg 76%
    18:00 +11°C° 0.5 mm 7 m/s 739 mmHg 80%
    19:00 +10°C° 0.1 mm 6 m/s 741 mmHg 80%
    20:00 +9°C° 0.1 mm 6 m/s 742 mmHg 80%
    21:00 +8°C° 0.1 mm 6 m/s 744 mmHg 80%
    22:00 +8°C° 0 mm 6 m/s 745 mmHg 82%
    23:00 +8°C° 0 mm 5 m/s 745 mmHg 83%

    26 Aprilie, Vineri

    Timp Temperatura Precipitaţii Vânt Presiune Umiditate
    00:00 +7°C° 0 mm 5 m/s 746 mmHg 85%
    01:00 +7°C° 0 mm 5 m/s 747 mmHg 85%
    02:00 +7°C° 0 mm 5 m/s 747 mmHg 86%
    03:00 +6°C° 0 mm 4 m/s 748 mmHg 87%
    04:00 +6°C° 0 mm 4 m/s 748 mmHg 87%
    05:00 +6°C° 0 mm 4 m/s 748 mmHg 88%
    06:00 +6°C° 0 mm 4 m/s 749 mmHg 88%
    07:00 +8°C° 0 mm 4 m/s 749 mmHg 83%
    08:00 +10°C° 0 mm 4 m/s 750 mmHg 79%
    09:00 +10°C° 0 mm 5 m/s 750 mmHg 74%
    10:00 +12°C° 0 mm 4 m/s 751 mmHg 72%
    11:00 +13°C° 0 mm 4 m/s 751 mmHg 69%
    12:00 +14°C° 0 mm 4 m/s 751 mmHg 67%
    13:00 +13°C° 0.4 mm 4 m/s 752 mmHg 70%
    14:00 +13°C° 0.4 mm 5 m/s 752 mmHg 74%
    15:00 +12°C° 0.4 mm 5 m/s 752 mmHg 77%
    16:00 +12°C° 0 mm 5 m/s 753 mmHg 76%
    17:00 +10°C° 0 mm 5 m/s 753 mmHg 74%
    18:00 +10°C° 0 mm 5 m/s 753 mmHg 73%
    19:00 +9°C° 0 mm 5 m/s 753 mmHg 72%
    20:00 +8°C° 0 mm 5 m/s 753 mmHg 72%
    21:00 +7°C° 0 mm 5 m/s 753 mmHg 71%
    22:00 +7°C° 0.1 mm 6 m/s 754 mmHg 74%
    23:00 +8°C° 0.1 mm 6 m/s 754 mmHg 78%

    27 Aprilie, Sâmbătă

    Timp Temperatura Precipitaţii Vânt Presiune Umiditate
    00:00 +8°C° 0.1 mm 7 m/s 754 mmHg 81%
    01:00 +6°C° 0 mm 7 m/s 754 mmHg 79%
    02:00 +5°C° 0 mm 6 m/s 754 mmHg 76%
    03:00 +4°C° 0 mm 6 m/s 755 mmHg 73%
    04:00 +5°C° 0 mm 6 m/s 755 mmHg 72%
    05:00 +5°C° 0 mm 7 m/s 755 mmHg 71%
    06:00 +5°C° 0 mm 7 m/s 756 mmHg 70%
    07:00 +5°C° 0 mm 7 m/s 756 mmHg 66%
    08:00 +6°C° 0 mm 7 m/s 756 mmHg 63%
    09:00 +8°C° 0 mm 7 m/s 756 mmHg 59%
    10:00 +8°C° 0.4 mm 6 m/s 756 mmHg 64%
    11:00 +7°C° 0.4 mm 5 m/s 755 mmHg 70%
    12:00 +7°C° 0.4 mm 4 m/s 755 mmHg 75%
    13:00 +7°C° 1.3 mm 4 m/s 754 mmHg 80%
    14:00 +7°C° 1.3 mm 4 m/s 754 mmHg 85%
    15:00 +7°C° 1.3 mm 4 m/s 753 mmHg 90%
    16:00 +8°C° 0.1 mm 4 m/s 753 mmHg 87%
    17:00 +9°C° 0.1 mm 5 m/s 753 mmHg 84%
    18:00 +10°C° 0.1 mm 6 m/s 753 mmHg 80%
    19:00 +9°C° 0 mm 5 m/s 754 mmHg 82%
    20:00 +8°C° 0 mm 4 m/s 755 mmHg 84%
    21:00 +9°C° 0 mm 3 m/s 755 mmHg 86%
    22:00 +8°C° 0 mm 3 m/s 755 mmHg 86%
    23:00 +8°C° 0 mm 3 m/s 756 mmHg 86%
    Arată mai mult